This demonstration page uses our WeatherBlox Daily Observations layout. Learn more.

Left ArrowRight Arrow

39.12711, -84.51439

Hourly Observations for October 4, 2020

Temp ( °F °C ) Dew Point ( °F °C ) Humidity (%) Winds ( mph kmh ) Pressure ( in mb ) Visibility ( mi km ) Precip ( " mm )
12:53 am 00:53 Cloudy 53 11.7 50 10 89 89 Calm 30.17 1022 10 16 0.00 0.00
1:53 am 01:53 Cloudy 52 11.1 51 10.6 97 97 Calm 30.16 1021 10 16 0.00 0.00
2:53 am 02:53 Cloudy 53 11.7 51 10.6 93 93 Calm 30.16 1021 10 16 0.00 0.00
3:53 am 03:53 Cloudy 51 10.6 50 10 96 96 Calm 30.15 1021 10 16 0.00 0.00
4:53 am 04:53 Cloudy 52 11.1 51 10.6 97 97 Calm 30.13 1020 10 16 0.00 0.00
5:26 am 05:26 Mostly Cloudy with Mist and Fog 50 10 49 9.4 96 96 Calm 30.15 1021 2 3 0.00 0.00
5:53 am 05:53 Cloudy with Mist and Fog 50 10 49 9.4 96 96 Calm 30.12 1020 1 2 0.00 0.00
5:59 am 05:59 Cloudy with Mist and Fog 49 9.4 48 8.9 97 97 Calm 30.14 1021 3 5 0.00 0.00
6:53 am 06:53 Cloudy 50 10 49 9.4 96 96 Calm 30.13 1020 9 14 0.00 0.00
7:53 am 07:53 Cloudy 50 10 49 9.4 96 96 Calm 30.13 1020 9 14 0.00 0.00
8:53 am 08:53 Cloudy 52 11.1 50 10 93 93 Calm 30.12 1020 10 16 0.00 0.00
9:53 am 09:53 Cloudy 56 13.3 51 10.6 84 84 Calm 30.11 1020 10 16 0.00 0.00
10:53 am 10:53 Partly Cloudy 60 15.6 50 10 70 70 S 6 9 30.10 1019 10 16 0.00 0.00
11:53 am 11:53 Partly Cloudy 63 17.2 48 8.9 58 58 SSW 10 17 30.09 1019 10 16 0.00 0.00
12:53 pm 12:53 Partly Cloudy 69 20.6 48 8.9 47 47 S 13 20 30.07 1018 10 16 0.00 0.00
1:53 pm 13:53 Cloudy 68 20 47 8.3 47 47 SSW 15 24 30.05 1018 10 16 0.00 0.00
2:53 pm 14:53 Cloudy with Light Rain 58 14.4 50 10 75 75 NNW 12 19 30.08 1019 9 14 0.01 0.25
3:00 pm 15:00 Cloudy with Light Rain 57 13.9 50 10 78 78 NW 8 13 30.09 1019 10 16 0.00 0.00
3:44 pm 15:44 Cloudy with Rain 56 13.3 52 11.1 87 87 W 3 6 30.10 1019 2 3 0.06 1.52
3:51 pm 15:51 Cloudy with Light Rain 55 13 52 11 88 88 VRB 3 6 30.10 1019 4 6 0.07 1.78
3:53 pm 15:53 Cloudy with Light Rain 56 13.3 52 11.1 87 87 NW 5 7 30.10 1019 4 6 0.07 1.78
4:53 pm 16:53 Cloudy 56 13.3 51 10.6 84 84 NW 6 9 30.11 1020 10 16 0.00 0.00
5:28 pm 17:28 Cloudy 56 13.3 51 10.6 84 84 NW 6 9 30.12 1020 10 16 0.00 0.00
5:53 pm 17:53 Cloudy 56 13.3 49 9.4 77 77 NW 6 9 30.12 1020 10 16 0.00 0.00
6:53 pm 18:53 Cloudy 55 12.8 45 7.2 69 69 NW 15 24 30.16 1021 10 16 0.00 0.00
7:53 pm 19:53 Cloudy 54 12.2 45 7.2 72 72 NNW 13 20 30.18 1022 10 16 0.00 0.00
8:53 pm 20:53 Mostly Cloudy 53 11.7 44 6.7 72 72 NW 9 15 30.20 1023 10 16 0.00 0.00
9:53 pm 21:53 Clear 51 10.6 43 6.1 74 74 WNW 3 6 30.23 1024 10 16 0.00 0.00
10:53 pm 22:53 Mostly Clear 50 10 43 6.1 77 77 NW 5 7 30.24 1024 10 16 0.00 0.00
11:53 pm 23:53 Clear 49 9.4 43 6.1 80 80 NW 6 9 30.24 1024 10 16 0.00 0.00

Powered by AerisWeather